Location: Corralito
(10.2667°N, 66.9500°W)
Time: 07:59:48
(UTC+00:00)

Cosmos 1331 Rocket - Pass Details

Date: 09 December 2023
Orbit: 748 x 775 km, 74.0° (Epoch: 24 February)

Event Time Altitude Azimuth Distance (km) Brightness Sun altitude
Rises 23:46:44 0° 236° (SW) 3,241 8.5 -23.8°
Reaches altitude 10° 23:51:04 10° 270° (W) 2,316 7.4 -24.8°
Maximum altitude 23:52:34 11° 287° (WNW) 2,234 7.1 -25.1°
Drops below altitude 10° 23:54:06 10° 304° (WNW) 2,316 6.9 -25.5°
Sets 23:58:28 0° 338° (NNW) 3,242 7.3 -26.5°
